Flag for Germany Weather past 2 weeks in Greven, North Rhine-Westphalia, Germany

Now
48 °F

Passing clouds.


Feels Like: 43 °F
Forecast: 39 / 46 °F
Wind: 13 mph from Southwest

Location: Muenster / Osnabrueck

Current Time: Mar 1, 2015 at 6:07:27 PM

Latest Report: Mar 1, 2015 at 5:20 PM


Visibility: N/A

Pressure: 29.56 "Hg

Humidity: 58%

Dew point: 34 °F

Location of GrevenLocation

Historic Weather in Greven — Graph

°F

Greven temperature yesterday

Maximum temperature yesterday: 46 °F (at 2:20 PM)
Minimum temperature yesterday: 28 °F (at 3:50 AM)
Average temperature yesterday: 38 °F

Past Weeks' High & Low Weather Summary

 TemperatureHumidityPressure
High50 °F (Feb 14, 4:20 PM)100% (Feb 15, 1:50 AM)30.74 "Hg (Feb 15, 1:50 AM)
Low27 °F (Feb 17, 1:50 AM)46% (Feb 28, 2:20 PM)29.30 "Hg (Feb 21, 6:20 AM)
Average38 °F86%29.94 "Hg
* Reported Feb 14 4:20 PM — Mar 1 4:20 PM, Greven, Weather by CustomWeather, © 2015

Note: Actual official high and low records may vary slightly from our data, if they occured in-between our weather recording intervals... More about our weather records

Advertising

Greven weather history for previous 24 hours

 ConditionsComfort  
Time TempWeatherWind HumidityBarometerVisibility
4:20 PM
Sun, Mar 1
50 °FScattered clouds.17 mph58%29.53 "HgN/A
3:50 PM50 °FPartly sunny.17 mph58%29.53 "HgN/A
3:20 PM50 °FScattered clouds.20 mph58%29.53 "HgN/A
2:50 PM50 °FBroken clouds.23 mph58%29.53 "HgN/A
2:20 PM50 °FScattered clouds.22 mph67%29.53 "HgN/A
1:50 PM48 °FBroken clouds.20 mph71%29.53 "HgN/A
1:20 PM50 °FBroken clouds.22 mph71%29.53 "HgN/A
12:50 PM48 °FSprinkles. Broken clouds.18 mph76%29.53 "HgN/A
12:20 PM50 °FScattered clouds.23 mph71%29.53 "HgN/A
11:50 AM48 °FScattered clouds.20 mph82%29.53 "HgN/A
11:20 AM48 °FScattered clouds.16 mph87%29.53 "HgN/A
10:50 AM48 °FScattered clouds.15 mph87%29.53 "HgN/A
10:20 AM46 °FPartly sunny.12 mph93%29.53 "HgN/A
9:50 AM45 °FBroken clouds.14 mph93%29.53 "HgN/A
9:20 AM45 °FDrizzle. Broken clouds.14 mph93%29.53 "Hg5 mi
8:50 AM45 °FDrizzle. Broken clouds.13 mph87%29.50 "HgN/A
8:20 AM43 °FPartly sunny.12 mph93%29.50 "HgN/A
7:50 AM43 °FPartly sunny.13 mph93%29.50 "Hg6 mi
7:20 AM41 °FDrizzle. Partly sunny.14 mph93%29.50 "Hg6 mi
6:50 AM41 °FLight rain. Passing clouds.14 mph93%29.50 "Hg6 mi
6:20 AM41 °FLight rain. Passing clouds.15 mph93%29.50 "Hg6 mi
5:50 AM41 °FLight rain. Passing clouds.14 mph81%29.50 "HgN/A
5:20 AM41 °FLight rain. Partly cloudy.15 mph81%29.53 "HgN/A
4:50 AM41 °FLight rain. Partly cloudy.12 mph81%29.53 "HgN/A
4:20 AM41 °FPartly cloudy.13 mph76%29.56 "HgN/A
3:50 AM41 °FPassing clouds.12 mph76%29.56 "HgN/A
3:20 AM41 °FLight rain. Passing clouds.13 mph76%29.59 "HgN/A
2:50 AM43 °FLight rain. Passing clouds.13 mph61%29.62 "HgN/A
2:20 AM43 °FPartly cloudy.15 mph57%29.62 "HgN/A
1:50 AM43 °FPassing clouds.13 mph57%29.65 "HgN/A
1:20 AM43 °FPassing clouds.13 mph57%29.68 "HgN/A
12:50 AM43 °FPassing clouds.10 mph57%29.71 "HgN/A
12:20 AM43 °FPassing clouds.10 mph57%29.74 "HgN/A
11:50 PM
Sat, Feb 28
43 °FPassing clouds.10 mph57%29.74 "HgN/A
11:20 PM43 °FPassing clouds.12 mph57%29.77 "HgN/A
10:50 PM43 °FPassing clouds.10 mph57%29.77 "HgN/A
10:20 PM43 °FPassing clouds.12 mph57%29.80 "HgN/A
9:50 PM41 °FPassing clouds.9 mph61%29.83 "HgN/A
9:20 PM41 °FPartly cloudy.12 mph61%29.83 "HgN/A
8:50 PM41 °FClear.10 mph61%29.86 "Hg10 mi
8:20 PM41 °FClear.10 mph61%29.89 "Hg10 mi
7:50 PM41 °FClear.10 mph66%29.89 "Hg10 mi
7:20 PM43 °FClear.9 mph61%29.89 "Hg10 mi
6:50 PM43 °FClear.9 mph57%29.89 "Hg10 mi
6:20 PM43 °FClear.9 mph57%29.89 "Hg10 mi
Weather by CustomWeather, © 2015

See weather overviewHow to use our weather pages